Location: Mountain Grove
(34.0887°N, 86.6172°W)
Time: 21:21:34
(UTC+00:00)

Cosmos 921 Rocket - Pass Details

Date: 14 July 2020
Orbit: 572 x 632 km, 75.8° (Epoch: 08 August)

Event Time Altitude Azimuth Distance (km) Brightness Sun altitude
Rises 08:36:50 0° 342° (NNW) 2,875 6.9 -22.0°
Reaches altitude 10° 08:39:06 10° 340° (NNW) 1,957 6.0 -21.7°
Maximum altitude 08:43:25 69° 258° (WSW) 639 2.9 -21.1°
Enters shadow 08:44:00 60° 208° (SSW) 684 2.9 -21.0°
